Regional Weather Roundup
Issued by NWS

Home | Current Version | Previous Version | Text Only | Print | Product List | Glossary On
Versions: 1 2 3 4 5 6 7 8 9 10 11 12 13 14 15 16 17 18 19 20 21 22 23 24 25 26 27 28 29 30 31 32 33 34 35 36 37 38 39 40 41 42 43 44 45 46 47 48 49 50
000
ASPQ40 PGUM 190612
RWRPQ
WEATHER ROUNDUP FOR THE MARIANAS AND MICRONESIA
NATIONAL WEATHER SERVICE TIYAN GU
400 PM CHST FRI SEP 19 2014

GUZ001>004-190700-
MARIANA ISLANDS-

CITY           SKY/WX    TMP DP  RH WIND       PRES   REMARKS
GUAM AIRPORT   MOSUNNY   84  77  79 N9        29.80F HX  94
ANDERSEN AFB   MOSUNNY   82  77  83 N15       29.81F HX  91
ROTA AIRPORT   PTSUNNY   82  77  83 NE10      29.82F HX  91
TINIAN AP      PTSUNNY   84  77  79 NE12      29.78F HX  94
SAIPAN AP      SUNNY     86  79  79 NE12      29.80F HX  99

$$

PMZ161-190700-
REPUBLIC OF PALAU-

CITY           SKY/WX    TMP DP  RH WIND       PRES   REMARKS
KOROR AP       CLOUDY    84  79  84 SW5       29.84F HX  96
KOROR WSO      CLOUDY    88  77  70 N3        29.83F HX 100

$$

PMZ171>174-190700-
FEDERATED STATES OF MICRONESIA-

CITY           SKY/WX    TMP DP  RH WIND       PRES   REMARKS
YAP AIRPORT    CLOUDY    82  75  78 N10       29.82F
CHUUK AP       PTSUNNY   86  81  84 VRB3      29.71S HX 102
POHNPEI AP     NOT AVBL
POHNPEI WSO    NOT AVBL
KOSRAE AP      NOT AVBL

$$

PMZ181-190700-
REPUBLIC OF THE MARSHALL ISLANDS-

CITY           SKY/WX    TMP DP  RH WIND       PRES   REMARKS
KWAJALEIN AP   MOSUNNY   86  73  66 SE6       29.75R HX  93
MAJURO AP      PTCLDY    86  77  74 E7        29.73S HX  97
MAJURO WSO     MOCLDY    86  77  74 E5        29.74R HX  97

$$




USA.gov is the U.S. government's official web portal to all federal, state and local government web resources and services.